Location: Squirrel Cove
(50.1074°N, 124.9139°W)
Time: 12:50:07
(UTC-07:00)

PCSat - Pass Details

Date: 26 May 2022
Orbit: 784 x 795 km, 67.1° (Epoch: 26 June)

Event Time Altitude Azimuth Distance (km) Brightness Sun altitude
Rises 02:06:31 0° 324° (NW) 3,307 13.4 -17.9°
Reaches altitude 10° 02:08:59 10° 328° (NNW) 2,374 12.7 -17.8°
Maximum altitude 02:14:22 60° 49° (NE) 911 10.1 -17.6°
Drops below altitude 10° 02:19:43 10° 129° (SE) 2,359 11.8 -17.4°
Enters shadow 02:21:44 - 133° (SE) 3,122 12.4 -17.3°
